owner,sensor,date,latitude,longitude,vertical_datum,mass_concentration_of_oxygen_in_sea_water,qcFlag 
SCCF RECON,ioos:station:SCCF:51:1,2009-06-01T00:00:00Z,26.5545,-82.1715,1.845,5.88,1111122 
SCCF RECON,ioos:station:SCCF:51:1,2009-06-01T01:00:00Z,26.5545,-82.1715,1.836,5.78,1111122 
SCCF RECON,ioos:station:SCCF:51:1,2009-06-01T02:00:00Z,26.5545,-82.1715,1.8,5.74,1111122 
SCCF RECON,ioos:station:SCCF:51:1,2009-06-01T03:00:00Z,26.5545,-82.1715,1.746,5.48,1111122 
SCCF RECON,ioos:station:SCCF:51:1,2009-06-01T04:00:00Z,26.5545,-82.1715,1.68,5.14,1111122 
SCCF RECON,ioos:station:SCCF:51:1,2009-06-01T05:00:00Z,26.5545,-82.1715,1.603,5.1,1111122 
SCCF RECON,ioos:station:SCCF:51:1,2009-06-01T06:00:00Z,26.5545,-82.1715,1.56,4.97,1111122 
SCCF RECON,ioos:station:SCCF:51:1,2009-06-01T07:00:00Z,26.5545,-82.1715,1.567,5.03,1111122 
SCCF RECON,ioos:station:SCCF:51:1,2009-06-01T08:00:00Z,26.5545,-82.1715,1.614,4.95,1111122 
SCCF RECON,ioos:station:SCCF:51:1,2009-06-01T09:00:00Z,26.5545,-82.1715,1.71,5.07,1111122 
SCCF RECON,ioos:station:SCCF:51:1,2009-06-01T10:00:00Z,26.5545,-82.1715,1.82,5.02,1111122 
SCCF RECON,ioos:station:SCCF:51:1,2009-06-01T11:00:00Z,26.5545,-82.1715,1.909,4.96,1111122 
SCCF RECON,ioos:station:SCCF:51:1,2009-06-01T12:00:00Z,26.5545,-82.1715,1.954,4.88,1111122 
SCCF RECON,ioos:station:SCCF:51:1,2009-06-01T13:00:00Z,26.5545,-82.1715,1.984,4.59,1111122 
SCCF RECON,ioos:station:SCCF:51:1,2009-06-01T14:00:00Z,26.5545,-82.1715,1.951,4.88,1111122 
SCCF RECON,ioos:station:SCCF:51:1,2009-06-01T15:00:00Z,26.5545,-82.1715,1.881,5.03,1111122 
SCCF RECON,ioos:station:SCCF:51:1,2009-06-01T16:00:00Z,26.5545,-82.1715,1.806,5.0,1111122 
SCCF RECON,ioos:station:SCCF:51:1,2009-06-01T17:00:00Z,26.5545,-82.1715,1.71,5.22,1111122 
SCCF RECON,ioos:station:SCCF:51:1,2009-06-01T18:00:00Z,26.5545,-82.1715,1.614,5.46,1111122 
SCCF RECON,ioos:station:SCCF:51:1,2009-06-01T19:00:00Z,26.5545,-82.1715,1.54,5.74,1111122 
SCCF RECON,ioos:station:SCCF:51:1,2009-06-01T20:00:00Z,26.5545,-82.1715,1.519,6.11,1111122 
SCCF RECON,ioos:station:SCCF:51:1,2009-06-01T21:00:00Z,26.5545,-82.1715,1.561,6.04,1111122 
SCCF RECON,ioos:station:SCCF:51:1,2009-06-01T22:00:00Z,26.5545,-82.1715,1.622,6.24,1111122 
SCCF RECON,ioos:station:SCCF:51:1,2009-06-01T23:00:00Z,26.5545,-82.1715,1.707,6.3,1111122 
SCCF RECON,ioos:station:SCCF:51:1,2009-06-02T00:00:00Z,26.5545,-82.1715,1.78,6.01,1111122 
SCCF RECON,ioos:station:SCCF:51:1,2009-06-02T01:00:00Z,26.5545,-82.1715,1.84,6.0,1111122 
SCCF RECON,ioos:station:SCCF:51:1,2009-06-02T02:00:00Z,26.5545,-82.1715,1.84,5.59,1111122 
SCCF RECON,ioos:station:SCCF:51:1,2009-06-02T03:00:00Z,26.5545,-82.1715,1.81,5.58,1111122 
SCCF RECON,ioos:station:SCCF:51:1,2009-06-02T04:00:00Z,26.5545,-82.1715,1.75,5.56,1111122 
SCCF RECON,ioos:station:SCCF:51:1,2009-06-02T05:00:00Z,26.5545,-82.1715,1.726,5.36,1111122 
SCCF RECON,ioos:station:SCCF:51:1,2009-06-02T06:00:00Z,26.5545,-82.1715,1.691,5.28,1111122 
SCCF RECON,ioos:station:SCCF:51:1,2009-06-02T07:00:00Z,26.5545,-82.1715,1.646,5.03,1111122 
SCCF RECON,ioos:station:SCCF:51:1,2009-06-02T08:00:00Z,26.5545,-82.1715,1.66,5.25,1111122 
SCCF RECON,ioos:station:SCCF:51:1,2009-06-02T09:00:00Z,26.5545,-82.1715,1.712,5.09,1111122 
SCCF RECON,ioos:station:SCCF:51:1,2009-06-02T10:00:00Z,26.5545,-82.1715,1.8,5.04,1111122 
SCCF RECON,ioos:station:SCCF:51:1,2009-06-02T11:00:00Z,26.5545,-82.1715,1.9,4.84,1111122 
SCCF RECON,ioos:station:SCCF:51:1,2009-06-02T12:00:00Z,26.5545,-82.1715,2.0,4.99,1111122 
SCCF RECON,ioos:station:SCCF:51:1,2009-06-02T13:00:00Z,26.5545,-82.1715,2.049,4.45,1111122 
SCCF RECON,ioos:station:SCCF:51:1,2009-06-02T14:00:00Z,26.5545,-82.1715,2.045,4.84,1111122 
SCCF RECON,ioos:station:SCCF:51:1,2009-06-02T17:00:00Z,26.5545,-82.1715,1.85,5.65,1111122 
SCCF RECON,ioos:station:SCCF:51:1,2009-06-02T18:00:00Z,26.5545,-82.1715,1.738,5.91,1111122 
SCCF RECON,ioos:station:SCCF:51:1,2009-06-02T19:00:00Z,26.5545,-82.1715,1.63,6.12,1111122 
SCCF RECON,ioos:station:SCCF:51:1,2009-06-02T20:00:00Z,26.5545,-82.1715,1.528,6.56,1111122 
SCCF RECON,ioos:station:SCCF:51:1,2009-06-02T21:00:00Z,26.5545,-82.1715,1.454,6.62,1111122 
SCCF RECON,ioos:station:SCCF:51:1,2009-06-02T22:00:00Z,26.5545,-82.1715,1.478,6.76,1111122 
SCCF RECON,ioos:station:SCCF:51:1,2009-06-02T23:00:00Z,26.5545,-82.1715,1.562,6.58,1111122 
SCCF RECON,ioos:station:SCCF:51:1,2009-06-03T00:00:00Z,26.5545,-82.1715,1.702,6.35,1111122 
SCCF RECON,ioos:station:SCCF:51:1,2009-06-03T01:00:00Z,26.5545,-82.1715,1.754,6.03,1111122 
SCCF RECON,ioos:station:SCCF:51:1,2009-06-03T02:00:00Z,26.5545,-82.1715,1.8,5.98,1111122 
SCCF RECON,ioos:station:SCCF:51:1,2009-06-03T03:00:00Z,26.5545,-82.1715,1.83,5.84,1111122 
SCCF RECON,ioos:station:SCCF:51:1,2009-06-03T04:00:00Z,26.5545,-82.1715,1.82,5.75,1111122 
SCCF RECON,ioos:station:SCCF:51:1,2009-06-03T05:00:00Z,26.5545,-82.1715,1.792,5.68,1111122 
SCCF RECON,ioos:station:SCCF:51:1,2009-06-03T06:00:00Z,26.5545,-82.1715,1.743,5.53,1111122 
SCCF RECON,ioos:station:SCCF:51:1,2009-06-03T07:00:00Z,26.5545,-82.1715,1.712,5.62,1111122 
SCCF RECON,ioos:station:SCCF:51:1,2009-06-03T08:00:00Z,26.5545,-82.1715,1.707,5.29,1111122 
SCCF RECON,ioos:station:SCCF:51:1,2009-06-03T09:00:00Z,26.5545,-82.1715,1.7,5.14,1111122 
SCCF RECON,ioos:station:SCCF:51:1,2009-06-03T10:00:00Z,26.5545,-82.1715,1.76,5.14,1111122 
SCCF RECON,ioos:station:SCCF:51:1,2009-06-03T11:00:00Z,26.5545,-82.1715,1.84,5.03,1111122 
SCCF RECON,ioos:station:SCCF:51:1,2009-06-03T12:00:00Z,26.5545,-82.1715,1.929,4.67,1111122 
SCCF RECON,ioos:station:SCCF:51:1,2009-06-03T13:00:00Z,26.5545,-82.1715,2.0,5.17,1111122 
SCCF RECON,ioos:station:SCCF:51:1,2009-06-03T14:00:00Z,26.5545,-82.1715,2.046,5.17,1111122 
SCCF RECON,ioos:station:SCCF:51:1,2009-06-03T15:00:00Z,26.5545,-82.1715,2.059,4.92,1111122 
SCCF RECON,ioos:station:SCCF:51:1,2009-06-03T16:00:00Z,26.5545,-82.1715,1.997,5.33,1111122 
SCCF RECON,ioos:station:SCCF:51:1,2009-06-03T17:00:00Z,26.5545,-82.1715,1.901,5.65,1111122 
SCCF RECON,ioos:station:SCCF:51:1,2009-06-03T18:00:00Z,26.5545,-82.1715,1.774,5.8,1111122 
SCCF RECON,ioos:station:SCCF:51:1,2009-06-03T19:00:00Z,26.5545,-82.1715,1.644,6.0,1111122 
SCCF RECON,ioos:station:SCCF:51:1,2009-06-03T20:00:00Z,26.5545,-82.1715,1.53,6.41,1111122 
SCCF RECON,ioos:station:SCCF:51:1,2009-06-03T21:00:00Z,26.5545,-82.1715,1.449,6.6,1111122 
SCCF RECON,ioos:station:SCCF:51:1,2009-06-03T22:00:00Z,26.5545,-82.1715,1.413,6.8,1111122 
SCCF RECON,ioos:station:SCCF:51:1,2009-06-03T23:00:00Z,26.5545,-82.1715,1.44,6.76,1111122 
SCCF RECON,ioos:station:SCCF:51:1,2009-06-04T00:00:00Z,26.5545,-82.1715,1.54,6.32,1111122 
SCCF RECON,ioos:station:SCCF:51:1,2009-06-04T01:00:00Z,26.5545,-82.1715,1.65,6.25,1111122 
SCCF RECON,ioos:station:SCCF:51:1,2009-06-04T02:00:00Z,26.5545,-82.1715,1.751,6.12,1111122 
SCCF RECON,ioos:station:SCCF:51:1,2009-06-04T03:00:00Z,26.5545,-82.1715,1.821,5.85,1111122 
SCCF RECON,ioos:station:SCCF:51:1,2009-06-04T04:00:00Z,26.5545,-82.1715,1.88,5.69,1111122 
SCCF RECON,ioos:station:SCCF:51:1,2009-06-04T05:00:00Z,26.5545,-82.1715,1.873,5.53,1111122 
SCCF RECON,ioos:station:SCCF:51:1,2009-06-04T06:00:00Z,26.5545,-82.1715,1.84,5.59,1111122 
SCCF RECON,ioos:station:SCCF:51:1,2009-06-04T07:00:00Z,26.5545,-82.1715,1.81,5.34,1111122 
SCCF RECON,ioos:station:SCCF:51:1,2009-06-04T08:00:00Z,26.5545,-82.1715,1.78,5.23,1111122 
SCCF RECON,ioos:station:SCCF:51:1,2009-06-04T09:00:00Z,26.5545,-82.1715,1.78,5.06,1111122 
SCCF RECON,ioos:station:SCCF:51:1,2009-06-04T10:00:00Z,26.5545,-82.1715,1.81,5.09,1111122 
SCCF RECON,ioos:station:SCCF:51:1,2009-06-04T11:00:00Z,26.5545,-82.1715,1.87,5.03,1111122 
SCCF RECON,ioos:station:SCCF:51:1,2009-06-04T12:00:00Z,26.5545,-82.1715,1.95,5.04,1111122 
SCCF RECON,ioos:station:SCCF:51:1,2009-06-04T13:00:00Z,26.5545,-82.1715,2.033,5.13,1111122 
SCCF RECON,ioos:station:SCCF:51:1,2009-06-04T14:00:00Z,26.5545,-82.1715,2.095,5.41,1111122 
SCCF RECON,ioos:station:SCCF:51:1,2009-06-04T15:00:00Z,26.5545,-82.1715,2.11,5.11,1111122 
SCCF RECON,ioos:station:SCCF:51:1,2009-06-04T16:00:00Z,26.5545,-82.1715,2.07,5.57,1111122 
SCCF RECON,ioos:station:SCCF:51:1,2009-06-04T17:00:00Z,26.5545,-82.1715,1.995,5.73,1111122 
SCCF RECON,ioos:station:SCCF:51:1,2009-06-04T18:00:00Z,26.5545,-82.1715,1.893,5.88,1111122 
SCCF RECON,ioos:station:SCCF:51:1,2009-06-04T19:00:00Z,26.5545,-82.1715,1.765,6.11,1111122 
SCCF RECON,ioos:station:SCCF:51:1,2009-06-04T20:00:00Z,26.5545,-82.1715,1.637,6.35,1111122 
SCCF RECON,ioos:station:SCCF:51:1,2009-06-04T21:00:00Z,26.5545,-82.1715,1.514,6.69,1111122 
SCCF RECON,ioos:station:SCCF:51:1,2009-06-04T22:00:00Z,26.5545,-82.1715,1.42,6.88,1111122 
SCCF RECON,ioos:station:SCCF:51:1,2009-06-04T23:00:00Z,26.5545,-82.1715,1.372,6.93,1111122 
SCCF RECON,ioos:station:SCCF:51:1,2009-06-05T00:00:00Z,26.5545,-82.1715,1.428,6.55,1111122 
SCCF RECON,ioos:station:SCCF:51:1,2009-06-05T01:00:00Z,26.5545,-82.1715,1.529,6.19,1111122 
SCCF RECON,ioos:station:SCCF:51:1,2009-06-05T02:00:00Z,26.5545,-82.1715,1.65,6.23,1111122 
SCCF RECON,ioos:station:SCCF:51:1,2009-06-05T03:00:00Z,26.5545,-82.1715,1.754,6.08,1111122 
SCCF RECON,ioos:station:SCCF:51:1,2009-06-05T04:00:00Z,26.5545,-82.1715,1.82,5.88,1111122 
SCCF RECON,ioos:station:SCCF:51:1,2009-06-05T05:00:00Z,26.5545,-82.1715,1.867,5.67,1111122 
SCCF RECON,ioos:station:SCCF:51:1,2009-06-05T06:00:00Z,26.5545,-82.1715,1.88,5.62,1111122 
SCCF RECON,ioos:station:SCCF:51:1,2009-06-05T07:00:00Z,26.5545,-82.1715,1.844,5.54,1111122 
SCCF RECON,ioos:station:SCCF:51:1,2009-06-05T08:00:00Z,26.5545,-82.1715,1.806,5.38,1111122 
SCCF RECON,ioos:station:SCCF:51:1,2009-06-05T09:00:00Z,26.5545,-82.1715,1.792,5.45,1111122 
SCCF RECON,ioos:station:SCCF:51:1,2009-06-05T10:00:00Z,26.5545,-82.1715,1.8,5.4,1111122 
SCCF RECON,ioos:station:SCCF:51:1,2009-06-05T11:00:00Z,26.5545,-82.1715,1.864,5.26,1111122 
SCCF RECON,ioos:station:SCCF:51:1,2009-06-05T12:00:00Z,26.5545,-82.1715,1.964,5.32,1111122 
SCCF RECON,ioos:station:SCCF:51:1,2009-06-05T13:00:00Z,26.5545,-82.1715,2.06,5.32,1111122 
SCCF RECON,ioos:station:SCCF:51:1,2009-06-05T14:00:00Z,26.5545,-82.1715,2.116,5.47,1111122 
SCCF RECON,ioos:station:SCCF:51:1,2009-06-05T15:00:00Z,26.5545,-82.1715,2.132,5.49,1111122 
SCCF RECON,ioos:station:SCCF:51:1,2009-06-05T16:00:00Z,26.5545,-82.1715,2.09,5.6,1111122 
SCCF RECON,ioos:station:SCCF:51:1,2009-06-05T17:00:00Z,26.5545,-82.1715,2.031,5.67,1111122 
SCCF RECON,ioos:station:SCCF:51:1,2009-06-05T18:00:00Z,26.5545,-82.1715,1.953,5.76,1111122 
SCCF RECON,ioos:station:SCCF:51:1,2009-06-05T19:00:00Z,26.5545,-82.1715,1.857,5.96,1111122 
SCCF RECON,ioos:station:SCCF:51:1,2009-06-05T20:00:00Z,26.5545,-82.1715,1.749,6.32,1111122 
SCCF RECON,ioos:station:SCCF:51:1,2009-06-05T21:00:00Z,26.5545,-82.1715,1.66,6.31,1111122 
SCCF RECON,ioos:station:SCCF:51:1,2009-06-05T22:00:00Z,26.5545,-82.1715,1.512,6.33,1111122 
SCCF RECON,ioos:station:SCCF:51:1,2009-06-05T23:00:00Z,26.5545,-82.1715,1.41,6.34,1111122 
SCCF RECON,ioos:station:SCCF:51:1,2009-06-06T00:00:00Z,26.5545,-82.1715,1.4,6.35,1111122 
SCCF RECON,ioos:station:SCCF:51:1,2009-06-06T01:00:00Z,26.5545,-82.1715,1.44,5.94,1111122 
SCCF RECON,ioos:station:SCCF:51:1,2009-06-06T02:00:00Z,26.5545,-82.1715,1.53,5.56,1111122 
SCCF RECON,ioos:station:SCCF:51:1,2009-06-06T03:00:00Z,26.5545,-82.1715,1.65,5.79,1111122 
SCCF RECON,ioos:station:SCCF:51:1,2009-06-06T04:00:00Z,26.5545,-82.1715,1.748,5.72,1111122 
SCCF RECON,ioos:station:SCCF:51:1,2009-06-06T05:00:00Z,26.5545,-82.1715,1.808,5.43,1111122 
SCCF RECON,ioos:station:SCCF:51:1,2009-06-06T06:00:00Z,26.5545,-82.1715,1.843,5.47,1111122 
SCCF RECON,ioos:station:SCCF:51:1,2009-06-06T07:00:00Z,26.5545,-82.1715,1.856,5.23,1111122 
SCCF RECON,ioos:station:SCCF:51:1,2009-06-06T08:00:00Z,26.5545,-82.1715,1.843,5.19,1111122 
SCCF RECON,ioos:station:SCCF:51:1,2009-06-06T09:00:00Z,26.5545,-82.1715,1.841,5.1,1111122 
SCCF RECON,ioos:station:SCCF:51:1,2009-06-06T10:00:00Z,26.5545,-82.1715,1.918,5.16,1111122 
SCCF RECON,ioos:station:SCCF:51:1,2009-06-06T11:00:00Z,26.5545,-82.1715,1.943,4.87,1111122 
SCCF RECON,ioos:station:SCCF:51:1,2009-06-06T12:00:00Z,26.5545,-82.1715,1.964,5.1,1111122 
SCCF RECON,ioos:station:SCCF:51:1,2009-06-06T13:00:00Z,26.5545,-82.1715,2.013,5.0,1111122 
SCCF RECON,ioos:station:SCCF:51:1,2009-06-06T14:00:00Z,26.5545,-82.1715,2.096,5.28,1111122 
SCCF RECON,ioos:station:SCCF:51:1,2009-06-06T15:00:00Z,26.5545,-82.1715,2.179,5.38,1111122 
SCCF RECON,ioos:station:SCCF:51:1,2009-06-06T16:00:00Z,26.5545,-82.1715,2.171,5.39,1111122 
SCCF RECON,ioos:station:SCCF:51:1,2009-06-06T17:00:00Z,26.5545,-82.1715,2.141,5.55,1111122 
SCCF RECON,ioos:station:SCCF:51:1,2009-06-06T18:00:00Z,26.5545,-82.1715,2.072,5.72,1111122 
SCCF RECON,ioos:station:SCCF:51:1,2009-06-06T19:00:00Z,26.5545,-82.1715,1.972,5.84,1111122 
SCCF RECON,ioos:station:SCCF:51:1,2009-06-06T20:00:00Z,26.5545,-82.1715,1.84,5.7,1111122 
SCCF RECON,ioos:station:SCCF:51:1,2009-06-06T21:00:00Z,26.5545,-82.1715,1.707,6.04,1111122 
SCCF RECON,ioos:station:SCCF:51:1,2009-06-06T22:00:00Z,26.5545,-82.1715,1.577,6.26,1111122 
SCCF RECON,ioos:station:SCCF:51:1,2009-06-06T23:00:00Z,26.5545,-82.1715,1.47,6.88,1111122 
SCCF RECON,ioos:station:SCCF:51:1,2009-06-07T00:00:00Z,26.5545,-82.1715,1.394,6.81,1111122 
SCCF RECON,ioos:station:SCCF:51:1,2009-06-07T01:00:00Z,26.5545,-82.1715,1.371,6.46,1111122 
SCCF RECON,ioos:station:SCCF:51:1,2009-06-07T02:00:00Z,26.5545,-82.1715,1.449,6.11,1111122 
SCCF RECON,ioos:station:SCCF:51:1,2009-06-07T03:00:00Z,26.5545,-82.1715,1.551,5.55,1111122 
SCCF RECON,ioos:station:SCCF:51:1,2009-06-07T04:00:00Z,26.5545,-82.1715,1.665,5.56,1111122 
SCCF RECON,ioos:station:SCCF:51:1,2009-06-07T05:00:00Z,26.5545,-82.1715,1.76,5.69,1111122 
SCCF RECON,ioos:station:SCCF:51:1,2009-06-07T06:00:00Z,26.5545,-82.1715,1.819,5.38,1111122 
SCCF RECON,ioos:station:SCCF:51:1,2009-06-07T07:00:00Z,26.5545,-82.1715,1.823,5.24,1111122 
SCCF RECON,ioos:station:SCCF:51:1,2009-06-07T08:00:00Z,26.5545,-82.1715,1.815,5.12,1111122 
SCCF RECON,ioos:station:SCCF:51:1,2009-06-07T09:00:00Z,26.5545,-82.1715,1.826,5.2,1111122 
SCCF RECON,ioos:station:SCCF:51:1,2009-06-07T10:00:00Z,26.5545,-82.1715,1.828,5.3,1111122 
SCCF RECON,ioos:station:SCCF:51:1,2009-06-07T11:00:00Z,26.5545,-82.1715,1.806,5.2,1111122 
SCCF RECON,ioos:station:SCCF:51:1,2009-06-07T12:00:00Z,26.5545,-82.1715,1.823,5.22,1111122 
SCCF RECON,ioos:station:SCCF:51:1,2009-06-07T13:00:00Z,26.5545,-82.1715,1.886,5.02,1111122 
SCCF RECON,ioos:station:SCCF:51:1,2009-06-07T14:00:00Z,26.5545,-82.1715,1.99,4.91,1111122 
SCCF RECON,ioos:station:SCCF:51:1,2009-06-07T15:00:00Z,26.5545,-82.1715,2.102,5.58,1111122 
SCCF RECON,ioos:station:SCCF:51:1,2009-06-07T16:00:00Z,26.5545,-82.1715,2.17,5.58,1111122 
SCCF RECON,ioos:station:SCCF:51:1,2009-06-07T17:00:00Z,26.5545,-82.1715,2.149,5.71,1111122 
SCCF RECON,ioos:station:SCCF:51:1,2009-06-07T18:00:00Z,26.5545,-82.1715,2.102,5.75,1111122 
SCCF RECON,ioos:station:SCCF:51:1,2009-06-07T19:00:00Z,26.5545,-82.1715,2.042,5.91,1111122 
SCCF RECON,ioos:station:SCCF:51:1,2009-06-07T20:00:00Z,26.5545,-82.1715,1.94,6.34,1111122 
SCCF RECON,ioos:station:SCCF:51:1,2009-06-07T21:00:00Z,26.5545,-82.1715,1.795,6.52,1111122 
SCCF RECON,ioos:station:SCCF:51:1,2009-06-07T22:00:00Z,26.5545,-82.1715,1.649,6.49,1111122 
SCCF RECON,ioos:station:SCCF:51:1,2009-06-07T23:00:00Z,26.5545,-82.1715,1.526,6.96,1111122 
SCCF RECON,ioos:station:SCCF:51:1,2009-06-08T00:00:00Z,26.5545,-82.1715,1.409,7.35,1111122 
SCCF RECON,ioos:station:SCCF:51:1,2009-06-08T01:00:00Z,26.5545,-82.1715,1.355,7.24,1111122 
SCCF RECON,ioos:station:SCCF:51:1,2009-06-08T02:00:00Z,26.5545,-82.1715,1.407,6.95,1111122 
SCCF RECON,ioos:station:SCCF:51:1,2009-06-08T03:00:00Z,26.5545,-82.1715,1.51,6.43,1111122 
SCCF RECON,ioos:station:SCCF:51:1,2009-06-08T04:00:00Z,26.5545,-82.1715,1.63,5.51,1111122 
SCCF RECON,ioos:station:SCCF:51:1,2009-06-08T05:00:00Z,26.5545,-82.1715,1.742,5.47,1111122 
SCCF RECON,ioos:station:SCCF:51:1,2009-06-08T06:00:00Z,26.5545,-82.1715,1.816,5.23,1111122 
SCCF RECON,ioos:station:SCCF:51:1,2009-06-08T07:00:00Z,26.5545,-82.1715,1.86,5.29,1111122 
SCCF RECON,ioos:station:SCCF:51:1,2009-06-08T08:00:00Z,26.5545,-82.1715,1.853,5.23,1111122 
SCCF RECON,ioos:station:SCCF:51:1,2009-06-08T09:00:00Z,26.5545,-82.1715,1.811,5.04,1111122 
SCCF RECON,ioos:station:SCCF:51:1,2009-06-08T10:00:00Z,26.5545,-82.1715,1.798,4.89,1111122 
SCCF RECON,ioos:station:SCCF:51:1,2009-06-08T11:00:00Z,26.5545,-82.1715,1.81,4.95,1111122 
SCCF RECON,ioos:station:SCCF:51:1,2009-06-08T12:00:00Z,26.5545,-82.1715,1.857,4.89,1111122 
SCCF RECON,ioos:station:SCCF:51:1,2009-06-08T13:00:00Z,26.5545,-82.1715,1.921,5.25,1111122 
SCCF RECON,ioos:station:SCCF:51:1,2009-06-08T14:00:00Z,26.5545,-82.1715,2.0,4.99,1111122 
SCCF RECON,ioos:station:SCCF:51:1,2009-06-08T15:00:00Z,26.5545,-82.1715,2.041,5.31,1111122 
SCCF RECON,ioos:station:SCCF:51:1,2009-06-08T16:00:00Z,26.5545,-82.1715,2.11,5.63,1111122 
SCCF RECON,ioos:station:SCCF:51:1,2009-06-08T17:00:00Z,26.5545,-82.1715,2.152,5.62,1111122 
SCCF RECON,ioos:station:SCCF:51:1,2009-06-08T18:00:00Z,26.5545,-82.1715,2.115,5.92,1111122 
SCCF RECON,ioos:station:SCCF:51:1,2009-06-08T19:00:00Z,26.5545,-82.1715,2.034,6.04,1111122 
SCCF RECON,ioos:station:SCCF:51:1,2009-06-08T20:00:00Z,26.5545,-82.1715,1.925,6.57,1111122 
SCCF RECON,ioos:station:SCCF:51:1,2009-06-08T21:00:00Z,26.5545,-82.1715,1.791,6.35,1111122 
SCCF RECON,ioos:station:SCCF:51:1,2009-06-08T22:00:00Z,26.5545,-82.1715,1.669,6.94,1111122 
SCCF RECON,ioos:station:SCCF:51:1,2009-06-08T23:00:00Z,26.5545,-82.1715,1.55,6.81,1111122 
SCCF RECON,ioos:station:SCCF:51:1,2009-06-09T00:00:00Z,26.5545,-82.1715,1.44,7.01,1111122 
SCCF RECON,ioos:station:SCCF:51:1,2009-06-09T01:00:00Z,26.5545,-82.1715,1.358,7.26,1111122 
SCCF RECON,ioos:station:SCCF:51:1,2009-06-09T02:00:00Z,26.5545,-82.1715,1.34,7.15,1111122 
SCCF RECON,ioos:station:SCCF:51:1,2009-06-09T03:00:00Z,26.5545,-82.1715,1.41,6.97,1111122 
SCCF RECON,ioos:station:SCCF:51:1,2009-06-09T04:00:00Z,26.5545,-82.1715,1.529,6.41,1111122 
SCCF RECON,ioos:station:SCCF:51:1,2009-06-09T05:00:00Z,26.5545,-82.1715,1.64,6.34,1111122 
SCCF RECON,ioos:station:SCCF:51:1,2009-06-09T06:00:00Z,26.5545,-82.1715,1.739,6.07,1111122 
SCCF RECON,ioos:station:SCCF:51:1,2009-06-09T07:00:00Z,26.5545,-82.1715,1.81,5.68,1111122 
SCCF RECON,ioos:station:SCCF:51:1,2009-06-09T08:00:00Z,26.5545,-82.1715,1.86,5.76,1111122 
SCCF RECON,ioos:station:SCCF:51:1,2009-06-09T09:00:00Z,26.5545,-82.1715,1.87,5.72,1111122 
SCCF RECON,ioos:station:SCCF:51:1,2009-06-09T10:00:00Z,26.5545,-82.1715,1.83,5.64,1111122 
SCCF RECON,ioos:station:SCCF:51:1,2009-06-09T11:00:00Z,26.5545,-82.1715,1.826,5.25,1111122 
SCCF RECON,ioos:station:SCCF:51:1,2009-06-09T12:00:00Z,26.5545,-82.1715,1.838,5.28,1111122 
SCCF RECON,ioos:station:SCCF:51:1,2009-06-09T13:00:00Z,26.5545,-82.1715,1.89,5.1,1111122 
SCCF RECON,ioos:station:SCCF:51:1,2009-06-09T14:00:00Z,26.5545,-82.1715,1.954,5.78,1111122 
SCCF RECON,ioos:station:SCCF:51:1,2009-06-09T15:00:00Z,26.5545,-82.1715,2.026,5.77,1111122 
SCCF RECON,ioos:station:SCCF:51:1,2009-06-09T16:00:00Z,26.5545,-82.1715,2.099,5.8,1111122 
SCCF RECON,ioos:station:SCCF:51:1,2009-06-09T17:00:00Z,26.5545,-82.1715,2.149,5.93,1111122 
SCCF RECON,ioos:station:SCCF:51:1,2009-06-09T18:00:00Z,26.5545,-82.1715,2.133,6.06,1111122 
SCCF RECON,ioos:station:SCCF:51:1,2009-06-09T19:00:00Z,26.5545,-82.1715,2.067,6.26,1111122 
SCCF RECON,ioos:station:SCCF:51:1,2009-06-09T20:00:00Z,26.5545,-82.1715,1.966,6.33,1111122 
SCCF RECON,ioos:station:SCCF:51:1,2009-06-09T21:00:00Z,26.5545,-82.1715,1.841,6.43,1111122 
SCCF RECON,ioos:station:SCCF:51:1,2009-06-09T22:00:00Z,26.5545,-82.1715,1.714,6.26,1111122 
SCCF RECON,ioos:station:SCCF:51:1,2009-06-09T23:00:00Z,26.5545,-82.1715,1.598,6.84,1111122 
SCCF RECON,ioos:station:SCCF:51:1,2009-06-10T00:00:00Z,26.5545,-82.1715,1.493,6.51,1111122 
SCCF RECON,ioos:station:SCCF:51:1,2009-06-10T01:00:00Z,26.5545,-82.1715,1.401,6.56,1111122 
SCCF RECON,ioos:station:SCCF:51:1,2009-06-10T02:00:00Z,26.5545,-82.1715,1.349,6.48,1111122 
SCCF RECON,ioos:station:SCCF:51:1,2009-06-10T03:00:00Z,26.5545,-82.1715,1.38,6.11,1111122 
SCCF RECON,ioos:station:SCCF:51:1,2009-06-10T04:00:00Z,26.5545,-82.1715,1.461,5.83,1111122 
SCCF RECON,ioos:station:SCCF:51:1,2009-06-10T05:00:00Z,26.5545,-82.1715,1.564,5.62,1111122 
SCCF RECON,ioos:station:SCCF:51:1,2009-06-10T06:00:00Z,26.5545,-82.1715,1.665,5.97,1111122 
SCCF RECON,ioos:station:SCCF:51:1,2009-06-10T07:00:00Z,26.5545,-82.1715,1.751,5.76,1111122 
SCCF RECON,ioos:station:SCCF:51:1,2009-06-10T08:00:00Z,26.5545,-82.1715,1.81,5.52,1111122 
SCCF RECON,ioos:station:SCCF:51:1,2009-06-10T09:00:00Z,26.5545,-82.1715,1.836,5.11,1111122 
SCCF RECON,ioos:station:SCCF:51:1,2009-06-10T10:00:00Z,26.5545,-82.1715,1.814,5.29,1111122 
SCCF RECON,ioos:station:SCCF:51:1,2009-06-10T11:00:00Z,26.5545,-82.1715,1.787,5.27,1111122 
SCCF RECON,ioos:station:SCCF:51:1,2009-06-10T12:00:00Z,26.5545,-82.1715,1.781,4.88,1111122 
SCCF RECON,ioos:station:SCCF:51:1,2009-06-10T13:00:00Z,26.5545,-82.1715,1.81,5.39,1111122 
SCCF RECON,ioos:station:SCCF:51:1,2009-06-10T14:00:00Z,26.5545,-82.1715,1.853,5.47,1111122 
SCCF RECON,ioos:station:SCCF:51:1,2009-06-10T15:00:00Z,26.5545,-82.1715,1.918,5.63,1111122 
SCCF RECON,ioos:station:SCCF:51:1,2009-06-10T16:00:00Z,26.5545,-82.1715,1.989,5.74,1111122 
SCCF RECON,ioos:station:SCCF:51:1,2009-06-10T17:00:00Z,26.5545,-82.1715,2.06,5.93,1111122 
SCCF RECON,ioos:station:SCCF:51:1,2009-06-10T18:00:00Z,26.5545,-82.1715,2.105,6.1,1111122 
SCCF RECON,ioos:station:SCCF:51:1,2009-06-10T19:00:00Z,26.5545,-82.1715,2.08,6.02,1111122 
SCCF RECON,ioos:station:SCCF:51:1,2009-06-10T20:00:00Z,26.5545,-82.1715,2.012,6.35,1111122 
SCCF RECON,ioos:station:SCCF:51:1,2009-06-10T21:00:00Z,26.5545,-82.1715,1.915,6.16,1111122 
SCCF RECON,ioos:station:SCCF:51:1,2009-06-10T22:00:00Z,26.5545,-82.1715,1.799,6.21,1111122 
SCCF RECON,ioos:station:SCCF:51:1,2009-06-10T23:00:00Z,26.5545,-82.1715,1.69,5.68,1111122 
SCCF RECON,ioos:station:SCCF:51:1,2009-06-11T00:00:00Z,26.5545,-82.1715,1.581,5.68,1111122 
SCCF RECON,ioos:station:SCCF:51:1,2009-06-11T01:00:00Z,26.5545,-82.1715,1.485,5.72,1111122 
SCCF RECON,ioos:station:SCCF:51:1,2009-06-11T02:00:00Z,26.5545,-82.1715,1.416,5.76,1111122 
SCCF RECON,ioos:station:SCCF:51:1,2009-06-11T03:00:00Z,26.5545,-82.1715,1.392,5.68,1111122 
SCCF RECON,ioos:station:SCCF:51:1,2009-06-11T04:00:00Z,26.5545,-82.1715,1.454,5.63,1111122 
SCCF RECON,ioos:station:SCCF:51:1,2009-06-11T05:00:00Z,26.5545,-82.1715,1.529,5.52,1111122 
SCCF RECON,ioos:station:SCCF:51:1,2009-06-11T06:00:00Z,26.5545,-82.1715,1.63,5.16,1111122 
SCCF RECON,ioos:station:SCCF:51:1,2009-06-11T07:00:00Z,26.5545,-82.1715,1.735,5.45,1111122 
SCCF RECON,ioos:station:SCCF:51:1,2009-06-11T08:00:00Z,26.5545,-82.1715,1.81,5.44,1111122 
SCCF RECON,ioos:station:SCCF:51:1,2009-06-11T09:00:00Z,26.5545,-82.1715,1.86,4.86,1111122 
SCCF RECON,ioos:station:SCCF:51:1,2009-06-11T10:00:00Z,26.5545,-82.1715,1.87,4.98,1111122 
SCCF RECON,ioos:station:SCCF:51:1,2009-06-11T11:00:00Z,26.5545,-82.1715,1.852,5.0,1111122 
SCCF RECON,ioos:station:SCCF:51:1,2009-06-11T12:00:00Z,26.5545,-82.1715,1.829,4.79,1111122 
SCCF RECON,ioos:station:SCCF:51:1,2009-06-11T13:00:00Z,26.5545,-82.1715,1.837,4.18,1111122 
SCCF RECON,ioos:station:SCCF:51:1,2009-06-11T14:00:00Z,26.5545,-82.1715,1.864,5.11,1111122 
SCCF RECON,ioos:station:SCCF:51:1,2009-06-11T15:00:00Z,26.5545,-82.1715,1.911,5.34,1111122 
SCCF RECON,ioos:station:SCCF:51:1,2009-06-11T16:00:00Z,26.5545,-82.1715,1.962,5.57,1111122 
SCCF RECON,ioos:station:SCCF:51:1,2009-06-11T17:00:00Z,26.5545,-82.1715,2.023,6.03,1111122 
SCCF RECON,ioos:station:SCCF:51:1,2009-06-11T18:00:00Z,26.5545,-82.1715,2.08,6.28,1111122 
SCCF RECON,ioos:station:SCCF:51:1,2009-06-11T19:00:00Z,26.5545,-82.1715,2.099,5.71,1111122 
SCCF RECON,ioos:station:SCCF:51:1,2009-06-11T20:00:00Z,26.5545,-82.1715,2.061,6.27,1111122 
SCCF RECON,ioos:station:SCCF:51:1,2009-06-11T21:00:00Z,26.5545,-82.1715,1.976,6.54,1111122 
SCCF RECON,ioos:station:SCCF:51:1,2009-06-11T22:00:00Z,26.5545,-82.1715,1.883,6.33,1111122 